BPOBER EDOY-EDOY

Flight info

Callsign BPOBER
Flight time 0h 28m
Altitude 2500
Route VFR NIGHT POLICE
Aircraft EC35/L-S/G

Departure

Time 2026-04-11 21:27
Airport Ahrensfelde Heliport (EDOY)

Arrival

Time 2026-04-11 21:55
Airport Ahrensfelde Heliport (EDOY)
Time Latitude Longitude Altitude Speed Heading
2026-04-11 21:26 52.60098 13.57664 220 ft 0 kts 311°
2026-04-11 21:26 52.60099 13.57662 223 ft 3 kts 325°
2026-04-11 21:27 52.60179 13.57634 291 ft 18 kts 282°
2026-04-11 21:27 52.60120 13.57427 475 ft 63 kts 241°
2026-04-11 21:27 52.59816 13.56731 802 ft 79 kts 216°
2026-04-11 21:27 52.59307 13.56343 1098 ft 88 kts 188°
2026-04-11 21:28 52.58591 13.56031 1240 ft 129 kts 186°
2026-04-11 21:28 52.57590 13.55676 1297 ft 159 kts 185°
2026-04-11 21:28 52.56458 13.55328 1306 ft 168 kts 185°
2026-04-11 21:28 52.55304 13.55007 1302 ft 168 kts 184°
2026-04-11 21:29 52.54146 13.54708 1356 ft 167 kts 183°
2026-04-11 21:29 52.53006 13.54417 1507 ft 165 kts 182°
2026-04-11 21:29 52.51872 13.54124 1586 ft 166 kts 182°
2026-04-11 21:29 52.50730 13.53820 1628 ft 167 kts 183°
2026-04-11 21:30 52.49582 13.53485 1665 ft 168 kts 184°
2026-04-11 21:30 52.48445 13.53117 1700 ft 169 kts 184°
2026-04-11 21:30 52.47305 13.52657 1694 ft 164 kts 190°
2026-04-11 21:30 52.46244 13.52007 1751 ft 166 kts 193°
2026-04-11 21:31 52.45135 13.51349 1801 ft 168 kts 192°
2026-04-11 21:31 52.44042 13.50737 1838 ft 169 kts 191°
2026-04-11 21:31 52.42924 13.50149 1799 ft 169 kts 190°
2026-04-11 21:32 52.40762 13.49271 1801 ft 137 kts 181°
2026-04-11 21:32 52.39936 13.49169 1615 ft 104 kts 174°
2026-04-11 21:32 52.39229 13.49181 1333 ft 105 kts 170°
2026-04-11 21:32 52.38486 13.49287 1040 ft 107 kts 167°
2026-04-11 21:33 52.37793 13.49448 939 ft 95 kts 165°
2026-04-11 21:33 52.37183 13.49630 905 ft 83 kts 163°
2026-04-11 21:33 52.36728 13.49783 896 ft 52 kts 160°
2026-04-11 21:33 52.36451 13.49884 882 ft 34 kts 155°
2026-04-11 21:34 52.36342 13.49919 897 ft 1 kts 153°
2026-04-11 21:34 52.36350 13.49910 895 ft 2 kts 153°
2026-04-11 21:34 52.36365 13.49906 895 ft 2 kts 153°
2026-04-11 21:34 52.36377 13.49914 895 ft 2 kts 153°
2026-04-11 21:35 52.36376 13.49915 895 ft 0 kts 153°
2026-04-11 21:35 52.36376 13.49914 895 ft 0 kts 153°
2026-04-11 21:39 52.36376 13.49913 895 ft 0 kts 250°
2026-04-11 21:39 52.36376 13.49914 895 ft 0 kts 250°
2026-04-11 21:44 52.36376 13.49913 895 ft 0 kts 250°
2026-04-11 21:45 52.36376 13.49914 895 ft 0 kts 250°
2026-04-11 21:47 52.36376 13.49913 895 ft 0 kts 250°
2026-04-11 21:47 52.36373 13.49912 875 ft 4 kts 250°
2026-04-11 21:47 52.36259 13.49740 882 ft 45 kts 230°
2026-04-11 21:48 52.35876 13.49418 860 ft 77 kts 189°
2026-04-11 21:48 52.35342 13.49611 816 ft 88 kts 134°
2026-04-11 21:48 52.35227 13.50600 654 ft 99 kts 78°
2026-04-11 21:48 52.35490 13.51653 570 ft 102 kts 71°
2026-04-11 21:49 52.35797 13.52696 554 ft 99 kts 69°
2026-04-11 21:49 52.36125 13.53714 938 ft 106 kts 68°
2026-04-11 21:49 52.36529 13.54914 1242 ft 136 kts 69°
2026-04-11 21:49 52.37025 13.56388 1328 ft 163 kts 69°
2026-04-11 21:50 52.37572 13.58073 1357 ft 169 kts 69°
2026-04-11 21:50 52.38246 13.59571 1299 ft 161 kts 45°
2026-04-11 21:50 52.39308 13.60083 1212 ft 164 kts
2026-04-11 21:50 52.40466 13.59912 1274 ft 168 kts 359°
2026-04-11 21:51 52.41626 13.59686 1435 ft 168 kts 359°
2026-04-11 21:51 52.42790 13.59429 1446 ft 168 kts 358°
2026-04-11 21:51 52.43948 13.59146 1465 ft 168 kts 357°
2026-04-11 21:51 52.45105 13.58838 1475 ft 168 kts 356°
2026-04-11 21:52 52.46259 13.58506 1487 ft 168 kts 355°
2026-04-11 21:52 52.47411 13.58149 1497 ft 168 kts 354°
2026-04-11 21:52 52.48558 13.57767 1507 ft 168 kts 353°
2026-04-11 21:52 52.49709 13.57415 1500 ft 168 kts 354°
2026-04-11 21:53 52.50861 13.57069 1481 ft 168 kts 354°
2026-04-11 21:53 52.52014 13.56753 1419 ft 168 kts 356°
2026-04-11 21:53 52.53176 13.56511 1352 ft 168 kts 359°
2026-04-11 21:53 52.54345 13.56483 1293 ft 168 kts
2026-04-11 21:54 52.55508 13.56733 1125 ft 168 kts 14°
2026-04-11 21:54 52.56668 13.57001 1088 ft 168 kts 13°
2026-04-11 21:54 52.57832 13.57218 1052 ft 168 kts
2026-04-11 21:54 52.58980 13.57082 865 ft 159 kts 353°
2026-04-11 21:55 52.59950 13.56927 537 ft 110 kts 30°
2026-04-11 21:55 52.60163 13.57534 299 ft 22 kts 119°
2026-04-11 21:55 52.60081 13.57671 223 ft 1 kts 351°
2026-04-11 21:55 52.60096 13.57667 220 ft 0 kts 311°
2026-04-11 21:56 52.60097 13.57665 220 ft 0 kts 311°